Torna al catalogo

COSMOS 2499 DEB

AttivoPO
NORAD 55720·DEBRIS·🇷🇺 Russia

Lanciato May 23, 2014 da Plesetsk Cosmodrome

Loading…

Prossimi Passaggi (prossime 24 ore)

TLE

In scadenzaSource: Space-Track

Epoca: Sep 10, 2026, 15:22 UTC

1 55720U 14028AG  26253.64076973  .00003513  00000-0  14448-1 0  9998
2 55720  82.5211 216.0041 0152605 143.3237 217.8428 12.81044086169828

Traccia COSMOS 2499 DEB in tempo reale con AllMySat

Download on the App Store